| time (UTC) | temp F | wind direction | speed MPH | gust MPH | rain 1hr in | rain 24hr in | rain mn in | humidity % | barometer mb |
| 20260505230054 | 32 | 344 | 3.0 | 7.0 | 0.02 | 0.91 | 0.83 | 92 | 1011.9 |
| 20260505224556 | 33 | 344 | 5.0 | 9.0 | 0.03 | 0.91 | 0.83 | 92 | 1011.8 |
| 20260505223053 | 33 | 346 | 6.0 | 9.0 | 0.03 | 0.90 | 0.82 | 92 | 1011.5 |
| 20260505221550 | 33 | 29 | 6.0 | 9.0 | 0.03 | 0.90 | 0.82 | 92 | 1011.5 |
| 20260505220054 | 32 | 5 | 5.0 | 8.0 | 0.03 | 0.89 | 0.81 | 92 | 1011.1 |
| 20260505214555 | 32 | 355 | 7.0 | 11.0 | 0.02 | 0.88 | 0.80 | 92 | 1011.2 |
| 20260505213047 | 32 | 9 | 6.0 | 11.0 | 0.02 | 0.87 | 0.79 | 92 | 1011.0 |
| 20260505211546 | 32 | 19 | 7.0 | 11.0 | 0.02 | 0.87 | 0.79 | 92 | 1010.9 |
| 20260505210046 | 32 | 9 | 10.0 | 14.0 | 0.02 | 0.86 | 0.78 | 92 | 1011.0 |
| 20260505204544 | 32 | 15 | 6.0 | 9.0 | 0.03 | 0.86 | 0.78 | 92 | 1010.9 |
| 20260505203105 | 32 | 18 | 4.0 | 7.0 | 0.03 | 0.85 | 0.77 | 92 | 1011.1 |
| 20260505201546 | 32 | 11 | 4.0 | 7.0 | 0.03 | 0.85 | 0.77 | 92 | 1011.3 |
| 20260505200048 | 32 | 5 | 8.0 | 12.0 | 0.02 | 0.83 | 0.75 | 92 | 1010.9 |
| 20260505194541 | 32 | 5 | 10.0 | 18.0 | 0.03 | 0.83 | 0.75 | 91 | 1010.9 |
| 20260505193040 | 33 | 48 | 14.0 | 18.0 | 0.03 | 0.82 | 0.74 | 91 | 1010.8 |
| 20260505191539 | 35 | 15 | 13.0 | 18.0 | 0.05 | 0.82 | 0.74 | 88 | 1010.7 |
| 20260505190041 | 37 | 5 | 4.0 | 7.0 | 0.06 | 0.81 | 0.73 | 88 | 1010.3 |
| 20260505184539 | 37 | 200 | 0.0 | 3.0 | 0.07 | 0.80 | 0.72 | 88 | 1010.3 |
| 20260505183036 | 37 | 200 | 0.0 | 2.0 | 0.09 | 0.79 | 0.71 | 88 | 1010.0 |
| 20260505181542 | 37 | 200 | 0.0 | 2.0 | 0.08 | 0.77 | 0.69 | 87 | 1010.2 |
| 20260505180038 | 37 | 200 | 0.0 | 2.0 | 0.09 | 0.75 | 0.67 | 87 | 1010.4 |
| 20260505174540 | 37 | 200 | 0.0 | 2.0 | 0.10 | 0.73 | 0.65 | 88 | 1010.3 |
| 20260505173033 | 37 | 200 | 0.0 | 2.0 | 0.10 | 0.70 | 0.62 | 88 | 1010.1 |
| 20260505171533 | 37 | 200 | 1.0 | 5.0 | 0.12 | 0.68 | 0.60 | 87 | 1010.6 |
| 20260505170038 | 37 | 236 | 0.0 | 0.0 | 0.14 | 0.66 | 0.57 | 88 | 1010.4 |
| 20260505164531 | 37 | 236 | 0.0 | 0.0 | 0.15 | 0.63 | 0.55 | 87 | 1010.2 |
| 20260505163034 | 37 | 236 | 0.0 | 0.0 | 0.16 | 0.60 | 0.52 | 89 | 1010.1 |
| 20260505161530 | 36 | 236 | 0.0 | 0.0 | 0.15 | 0.56 | 0.48 | 90 | 1010.1 |
| 20260505153027 | 35 | 236 | 0.0 | 0.0 | 0.10 | 0.44 | 0.36 | 90 | 1010.2 |
| 20260505151526 | 34 | 236 | 0.0 | 2.0 | 0.08 | 0.41 | 0.33 | 91 | 1010.3 |
| 20260505124516 | 32 | 351 | 0.0 | 2.0 | 0.02 | 0.33 | 0.25 | 91 | 1009.1 |
| 20260505123013 | 33 | 351 | 1.0 | 3.0 | 0.02 | 0.33 | 0.25 | 91 | 1008.9 |
| 20260505121514 | 33 | 351 | 1.0 | 3.0 | 0.03 | 0.33 | 0.25 | 90 | 1008.7 |
| 20260505120009 | 34 | 351 | 4.0 | 7.0 | 0.03 | 0.33 | 0.25 | 89 | 1008.6 |
| 20260505114505 | 35 | 19 | 4.0 | 9.0 | 0.03 | 0.31 | 0.23 | 90 | 1008.5 |
| 20260505113101 | 35 | 39 | 4.0 | 9.0 | 0.03 | 0.31 | 0.23 | 90 | 1008.2 |
| 20260505111557 | 34 | 16 | 6.0 | 10.0 | 0.03 | 0.30 | 0.22 | 91 | 1008.1 |
| 20260505101555 | 33 | 15 | 9.0 | 16.0 | 0.05 | 0.27 | 0.19 | 89 | 1007.6 |
| 20260505100045 | 35 | 40 | 11.0 | 20.0 | 0.04 | 0.25 | 0.17 | 89 | 1007.3 |
| 20260505094543 | 37 | 360 | 13.0 | 20.0 | 0.03 | 0.23 | 0.15 | 89 | 1007.1 |
| 20260505093139 | 37 | 33 | 12.0 | 19.0 | 0.03 | 0.22 | 0.14 | 89 | 1006.9 |
| 20260505091539 | 39 | 5 | 14.0 | 19.0 | 0.08 | 0.22 | 0.14 | 87 | 1006.7 |
| 20260505090033 | 40 | 5 | 11.0 | 16.0 | 0.08 | 0.21 | 0.13 | 88 | 1006.5 |
| 20260505084527 | 40 | 5 | 12.0 | 19.0 | 0.08 | 0.20 | 0.12 | 88 | 1006.5 |
| 20260505083027 | 41 | 15 | 13.0 | 19.0 | 0.06 | 0.18 | 0.10 | 87 | 1006.2 |
| 20260505081527 | 41 | 21 | 11.0 | 17.0 | 0.02 | 0.14 | 0.06 | 86 | 1006.1 |
| 20260505080016 | 42 | 18 | 11.0 | 16.0 | 0.03 | 0.13 | 0.05 | 87 | 1006.0 |
| 20260505074517 | 42 | 15 | 12.0 | 18.0 | 0.04 | 0.12 | 0.04 | 85 | 1005.9 |
| 20260505073013 | 42 | 5 | 13.0 | 19.0 | 0.04 | 0.12 | 0.04 | 85 | 1005.8 |
| 20260505071510 | 42 | 20 | 15.0 | 23.0 | 0.04 | 0.12 | 0.04 | 84 | 1005.6 |
| 20260505070007 | 43 | 34 | 13.0 | 23.0 | 0.02 | 0.10 | 0.02 | 83 | 1005.7 |
| 20260505064509 | 44 | 9 | 15.0 | 23.0 | 0.00 | 0.08 | 0.00 | 80 | 1005.6 |
| 20260505063100 | 44 | 13 | 17.0 | 24.0 | 0.00 | 0.08 | 0.00 | 78 | 1005.1 |
| 20260505061600 | 45 | 5 | 19.0 | 30.0 | 0.00 | 0.08 | 0.00 | 77 | 1005.0 |
| 20260505060051 | 46 | 11 | 14.0 | 29.0 | 0.00 | 0.08 | 0.00 | 76 | 1005.0 |
| 20260505054547 | 49 | 16 | 10.0 | 19.0 | 0.00 | 0.08 | 0.08 | 81 | 1004.5 |
| 20260505053048 | 48 | 175 | 3.0 | 5.0 | 0.00 | 0.08 | 0.08 | 84 | 1003.9 |
| 20260505051542 | 48 | 175 | 0.0 | 3.0 | 0.00 | 0.08 | 0.08 | 82 | 1003.7 |
| 20260505041537 | 49 | 194 | 2.0 | 6.0 | 0.00 | 0.08 | 0.08 | 80 | 1003.2 |
| 20260505040036 | 49 | 194 | 4.0 | 8.0 | 0.00 | 0.08 | 0.08 | 80 | 1003.1 |
| 20260505034536 | 49 | 203 | 1.0 | 4.0 | 0.00 | 0.08 | 0.08 | 80 | 1002.8 |
| 20260505033054 | 49 | 202 | 4.0 | 6.0 | 0.00 | 0.08 | 0.08 | 82 | 1002.8 |
| 20260505031531 | 49 | 254 | 0.0 | 4.0 | 0.00 | 0.08 | 0.08 | 82 | 1002.5 |
| 20260505030030 | 49 | 254 | 0.0 | 1.0 | 0.00 | 0.08 | 0.08 | 84 | 1002.3 |
| 20260505024528 | 50 | 254 | 0.0 | 2.0 | 0.00 | 0.08 | 0.08 | 83 | 1002.1 |
| 20260505023024 | 50 | 254 | 0.0 | 3.0 | 0.00 | 0.08 | 0.08 | 79 | 1001.7 |
| 20260505021523 | 49 | 255 | 3.0 | 6.0 | 0.00 | 0.08 | 0.08 | 78 | 1001.5 |
| 20260505020023 | 50 | 253 | 0.0 | 3.0 | 0.01 | 0.08 | 0.08 | 83 | 1001.4 |
| 20260505014523 | 49 | 277 | 1.0 | 5.0 | 0.02 | 0.08 | 0.08 | 80 | 1001.6 |
| 20260505013022 | 49 | 273 | 4.0 | 9.0 | 0.06 | 0.08 | 0.08 | 82 | 1001.4 |
| 20260505011522 | 49 | 276 | 5.0 | 10.0 | 0.08 | 0.08 | 0.08 | 81 | 1001.4 |
| 20260505010020 | 50 | 263 | 6.0 | 12.0 | 0.07 | 0.07 | 0.07 | 79 | 1001.4 |
| 20260505004535 | 50 | 271 | 8.0 | 16.0 | 0.06 | 0.06 | 0.06 | 80 | 1001.4 |
| 20260505003016 | 52 | 308 | 12.0 | 17.0 | 0.02 | 0.02 | 0.02 | 71 | 1001.5 |
| 20260505001514 | 55 | 360 | 9.0 | 16.0 | 0.00 | 0.00 | 0.00 | 65 | 1001.4 |
| 20260505000020 | 55 | 281 | 4.0 | 6.0 | 0.00 | 0.00 | 0.00 | 61 | 1001.3 |
| 20260504234522 | 56 | 194 | 5.0 | 11.0 | 0.00 | 0.00 | 0.00 | 59 | 1000.8 |
| 20260504233011 | 57 | 193 | 7.0 | 16.0 | 0.00 | 0.00 | 0.00 | 57 | 1000.6 |
| 20260504231523 | 61 | 249 | 5.0 | 10.0 | 0.00 | 0.00 | 0.00 | 45 | 1000.5 |